Location: *
(45.9500°N, 9.0833°E)
Time: 12:38:06
(UTC+00:00)

ERS-2 - Pass Details

Date: 03 March 2021
Orbit: 492 x 496 km, 98.6° (Epoch: 19 April)

Event Time Altitude Azimuth Distance (km) Brightness Sun altitude
Rises 18:21:47 0° 13° (NNE) 2,595 5.7 -12.7°
Reaches altitude 10° 18:23:52 10° 13° (NNE) 1,707 4.7 -13.1°
Maximum altitude 18:27:32 84° 287° (WNW) 506 2.1 -13.7°
Drops below altitude 10° 18:31:11 10° 198° (SSW) 1,694 5.0 -14.4°
Sets 18:33:15 0° 197° (SSW) 2,572 5.9 -14.7°
